Regional Weather Roundup
Issued by NWS

Home | Current Version | Previous Version | Graphics & Text | Print | Product List | Glossary On
Versions: 1 2 3 4 5 6 7 8 9 10 11 12 13 14 15 16 17 18 19 20 21 22 23 24 25 26 27 28 29 30 31 32 33 34 35 36 37 38 39 40 41 42 43 44 45 46 47 48 49 50
048
ASUS43 KLOT 250108
RWRIL

ILLINOIS REGIONAL WEATHER ROUNDUP
NATIONAL WEATHER SERVICE CHICAGO/ROMEOVILLE IL
800 PM CDT SUN JUL 24 2016

NOTE: "FAIR" INDICATES FEW OR NO CLOUDS BELOW 12,000 FEET WITH NO
SIGNIFICANT WEATHER AND/OR OBSTRUCTIONS TO VISIBILITY.

* THESE STATIONS ARE NOT UNDER NWS QUALITY CONTROL. THEY ALSO MAY NOT
  REPORT WEATHER SUCH AS PRECIPITATION OR FOG.

ILZ001-002-007-009-015-016-024-250200-
NORTHWEST ILLINOIS

CITY           SKY/WX    TMP DP  RH WIND       PRES   REMARKS
MOLINE         MOCLDY    86  68  54 NW17G26   29.91R HX  89
STERLING*      CLOUDY    86  80  82 W9        29.89R HX 101
SAVANNA*       CLEAR     83  72  67 NW9       29.91R HX  88
$$

ILZ003-004-008-010-011-017-018-250200-
NORTH CENTRAL ILLINOIS

CITY           SKY/WX    TMP DP  RH WIND       PRES   REMARKS
ROCKFORD       CLOUDY    87  78  74 W12       29.88R HX 100
FREEPORT*      PTCLDY    83  75  76 NW16      29.91R HX  90
ROCHELLE*      CLOUDY    85  80  84 W10       29.87F HX  99
DE KALB*       CLOUDY    86  79  79 SW7       29.89S HX  99
$$

ILZ005-006-012>014-019>023-250200-
NORTHEAST ILLINOIS

CITY           SKY/WX    TMP DP  RH WIND       PRES   REMARKS
CHICAGO-OHARE  CLOUDY    76  71  85 S10       29.87F
CHICAGO-MIDWAY TSTM      74  65  73 S9        29.89R
AURORA         CLOUDY    80  69  69 SW6       29.89R HX  83
LANSING*       TSTM      76  63  64 N10G30    29.94R
JOLIET*        TSTM      80  71  73 CALM      29.91R HX  84
WAUKEGAN       CLOUDY    84  74  71 S7        29.85R HX  91
DUPAGE AIRPORT CLOUDY    81  71  71 S5        29.88F HX  85
WHEELING       CLOUDY    75  70  84 S12       29.89R
MORRIS*        TSTM      76  68  78 SW10      29.88R
ROMEOVILLE*    CLOUDY    76  68  75 E7        29.89R THUNDER
NORTHERLY ISL    N/A     74  62  66 S6          N/A
$$

LMZ740>746-250200-
SOUTHERN LAKE MICHIGAN

STATION/POSITION SKY/WX   TEMP    WIND        PRES    VSBY  WAVE
                          AIR SEA DIR/SP/G                  HT/PER
                          (F)     (DEG/KT/KT) (MB)    (MI)  (FT/S)
SOUTHERN BUOY              76 72  180/ 10/ 12 1009.4R         2/ 4
WILMETTE HARBOR            70 63  240/ 10/ 14   N/A           2/ 2
HARRISON CRIB              80                   N/A
BURNHAM HARBOR             75     200/ 14/ 36   N/A
CALUMET HARBOR             84                   N/A
BURNS HARBOR               80     280/ 36     1012.9R
MICHIGAN CITY              86     180/ 10/ 11   N/A
MICHIGAN CITY 6N           75 74  260/ 23/ 33   N/A           2/ 3
ST. JOSEPH                 80 74  190/ 10/ 12 1010.5R         2/ 3
$$

ILZ025>027-034>036-040-047-049-050-058-095>099-250200-
WEST-CENTRAL ILLINOIS

CITY           SKY/WX    TMP DP  RH WIND       PRES   REMARKS
QUINCY         CLOUDY    85  79  82 CALM      29.91S HX  98
GALESBURG*     CLOUDY    83  79  86 NW5       29.91R HX  95
MACOMB*        MOCLDY    84  80  86 W7        29.93R HX  97
JACKSONVILLE*  CLOUDY    87  82  83 W5        29.90S HX 106
PITTSFIELD*    CLEAR     88  82  81 CALM      29.92S HX 106
$$

ILZ028>032-037-038-041>044-048-051>054-059>061-250200-
CENTRAL ILLINOIS

CITY           SKY/WX    TMP DP  RH WIND       PRES   REMARKS
PONTIAC        TSTM      72  65  78 SW15G28   29.92R
BLOOMINGTON    CLOUDY    85  81  88 S8        29.91R HX 100
DECATUR        CLEAR     88  77  69 SW8       29.92R HX 100
PEORIA         CLOUDY    88  82  82 CALM      29.89R HX 108
LACON*         CLOUDY    83  78  83 CALM      29.88R HX  93
LINCOLN*       MOCLDY    88  84  88 S5        29.90R HX 112
SPRINGFIELD    CLEAR     89  81  77 SW8       29.90R HX 108
TAYLORVILLE    CLEAR     84  81  89 NW5       29.92R HX  98
$$

ILZ033-039-045-046-055>057-062-063-250200-
EAST-CENTRAL ILLINOIS

CITY           SKY/WX    TMP DP  RH WIND       PRES   REMARKS
CHAMPAIGN      CLEAR     83  78  85 S6        29.93R HX  93
RANTOUL*       CLOUDY    86  81  84 S5        29.91  HX 102
MATTOON        CLEAR     85  77  77 S7        29.92R HX  95
PARIS*         CLEAR     82  79  91 CALM      29.93R HX  92
$$

ILZ079-100>102-250200-
SOUTHWEST ILLINOIS

CITY           SKY/WX    TMP DP  RH WIND       PRES   REMARKS
ALTON          PTCLDY    88  79  74 S5        29.91R HX 102
BELLEVILLE     PTCLDY    87  82  83 SE3       29.90S HX 106
CAHOKIA*       CLOUDY    90  78  68 S7        29.90S HX 104
SPARTA*        CLEAR     85  77  75 S6        29.94F HX  96
$$

ILZ064>066-069>071-074>076-080>082-084>086-088>090-092>094-250200-
SOUTH-CENTRAL ILLINOIS

CITY           SKY/WX    TMP DP  RH WIND       PRES   REMARKS
CARBONDALE     CLEAR     84  74  71 S5        29.95R HX  91
CAIRO*         CLEAR     84  79  83 CALM      29.94S HX  96
EFFINGHAM*     CLEAR     86  79  79 SE6       29.94S HX  99
MARION         CLEAR     86  77  74 S3        29.95S HX  97
MT. VERNON     CLEAR     88  73  62 CALM      29.95R HX  96
CENTRALIA*     CLEAR     86  78  78 S6        29.93S HX  99
SALEM*         CLEAR     88  77  69 S7        29.93S HX  99
METROPOLIS*    CLEAR     85  78  78 CALM      29.95S HX  97
$$

ILZ067-068-072-073-078-083-087-091-250200-
SOUTHEAST ILLINOIS

CITY           SKY/WX    TMP DP  RH WIND       PRES   REMARKS
LAWRENCEVILLE  CLEAR     85  80  85 S6        29.94S HX  99
FLORA*         CLEAR     86  79  79 S7        29.94S HX 100
FAIRFIELD*     CLEAR     84  78  81 S5        29.93S HX  95
HARRISBURG*    CLEAR     84  81  89 S5        29.95S HX  99
ROBINSON*      CLEAR     84  78  81 S7        29.94S HX  95
CARMI*         CLEAR     83  80  90 S3        29.94S HX  96
$$

ABBREVIATIONS USED IN REMARKS
   TC - TEMPERATURE IN CELSIUS
  WCI - WIND CHILL INDEX
   HX - HEAT INDEX
  VSB - VISIBILITY
$$





USA.gov is the U.S. government's official web portal to all federal, state and local government web resources and services.